Regional Weather Roundup
Issued by NWS Memphis, TN

Home | Current Version | Previous Version | Text Only | Print | Product List | Glossary On
Versions: 1 2 3 4 5 6 7 8 9 10 11 12 13 14 15 16 17 18 19 20 21 22 23 24 25 26 27 28 29 30 31 32 33 34 35 36 37 38 39 40 41 42 43 44 45 46 47 48 49 50
000
ASUS44 KMEG 312310
RWRMEG
MEMPHIS CWA HOURLY WEATHER ROUNDUP
NATIONAL WEATHER SERVICE MEMPHIS TN
600 PM CDT FRI JUL 31 2015

...WEST TENNESSEE...

CITY           SKY/WX    TMP DP  RH WIND       PRES   REMARKS
MEMPHIS INTL   MOSUNNY   91  62  37 N12       30.01F HX  91
NWS MEMPHIS      N/A     89 N/A N/A MISG        N/A
JACKSON        SUNNY     91  62  37 N12       30.01F HX  91
LEXINGTON      SUNNY     86  63  45 N7        30.01F
DYERSBURG        N/A    N/A N/A N/A MISG        N/A
PARIS          SUNNY     84  66  54 N5        30.04F


...EASTERN ARKANSAS...

CITY           SKY/WX    TMP DP  RH WIND       PRES   REMARKS
JONESBORO      SUNNY     88  64  44 N7        30.03F
WEST MEMPHIS   SUNNY     90  65  43 N10       30.01F HX  92
BATESVILLE     SUNNY     90  66  45 W3        30.04F HX  92
NEWPORT        SUNNY     89  66  46 N6        30.04F HX  91
WALNUT RIDGE   SUNNY     91  64  40 N5        30.02F HX  93
BLYTHEVILLE    SUNNY     89  70  53 E3        30.03F HX  94
SEARCY         SUNNY     91  65  41 N7        30.04F HX  93
STUTTGART      SUNNY     90  63  40 MISG      30.03F HX  90
PINE BLUFF     SUNNY     91  64  40 N12       30.02F HX  92
MONTICELLO     SUNNY     92  65  40 NE5       30.01F HX  94


...NORTH MISSISSIPPI...

CITY           SKY/WX    TMP DP  RH WIND       PRES   REMARKS
TUPELO         SUNNY     89  62  40 N18       29.97F
OLIVE BRANCH   MOSUNNY   90  63  40 N9        30.01F HX  90
TUNICA         SUNNY     88  63  42 N12       30.01F
CLARKSDALE     SUNNY     90  68  48 NW9       30.01F HX  93
CORINTH        SUNNY     88  63  42 N5G13     29.99F
GREENWOOD      SUNNY     91  64  40 N9        29.97F HX  92
COLUMBUS       SUNNY     91  64  40 N10       29.94F HX  92
STARKVILLE     FAIR      88  63  42 N7        29.96F
GOLDEN TRIANGL SUNNY     93  59  31 N12       29.94F HX  92


...SOUTHEAST MISSOURI...

CITY           SKY/WX    TMP DP  RH WIND       PRES   REMARKS
WEST PLAINS    SUNNY     88  59  37 W5        30.10F
POPLAR BLUFF   SUNNY     91  64  40 W6        30.02F HX  92
CAPE GIRARDEAU SUNNY     90  66  45 N6        30.02F HX  92


...NORTHWEST ALABAMA...

CITY           SKY/WX    TMP DP  RH WIND       PRES   REMARKS
MUSCLE SHOALS  SUNNY     89  61  38 N8G17     29.99F


...MIDDLE TENNESSEE...

CITY           SKY/WX    TMP DP  RH WIND       PRES   REMARKS
NASHVILLE      MOSUNNY   88  59  37 N13       30.01F
CLARKSVILLE    SUNNY     86  64  47 N8        30.02F
COLUMBIA       SUNNY     88  63  42 N8        30.00S


...WESTERN KENTUCKY...

CITY           SKY/WX    TMP DP  RH WIND       PRES   REMARKS
PADUCAH        SUNNY     89  66  46 NW5       30.02F HX  91
FORT CAMPBELL  SUNNY     86  66  51 NW6       30.02F


...CENTRAL ARKANSAS...

CITY           SKY/WX    TMP DP  RH WIND       PRES   REMARKS
LITTLE ROCK    MOSUNNY   93  59  31 E9        30.02F HX  92


SKY/WX REPORTED AS FAIR MEANS FEW OR NO CLOUDS BELOW
12 THOUSAND FEET.



USA.gov is the U.S. government's official web portal to all federal, state and local government web resources and services.